This is the latest recevied weather packets stored in our database for station/object K4AMF. If no packets are shown the sender has not sent any weather packets the latest 10 day(s).
| Time | Temp. | Humidity | Pressure | Rain* | Wind** | Luminosity | Snow |
|---|---|---|---|---|---|---|---|
| 1777899316 | 19.44° C | 79% | 1019.6 hPa | 0 mm | - | 57 W/m² | - |
| 1777899014 | 18.89° C | 80% | 1019.7 hPa | 0 mm | - | 59 W/m² | - |
| 1777898711 | 18.33° C | 83% | 1019.6 hPa | 0 mm | - | 56 W/m² | - |
| 1777898409 | 17.78° C | 86% | 1019.7 hPa | 0 mm | - | 58 W/m² | - |
| 1777898106 | 17.22° C | 88% | 1019.7 hPa | 0 mm | - | 49 W/m² | - |
| 1777897802 | 16.67° C | 90% | 1019.3 hPa | 0 mm | - | 47 W/m² | - |
| 1777897498 | 16.67° C | 93% | 1019.5 hPa | 0 mm | - | 46 W/m² | - |
| 1777897194 | 16.11° C | 94% | 1019.5 hPa | 0 mm | - | 46 W/m² | - |
| 1777896890 | 15.56° C | 95% | 1019.3 hPa | 0 mm | - | 45 W/m² | - |
| 1777896588 | 15.56° C | 96% | 1019.2 hPa | 0 mm | - | 42 W/m² | - |
| 1777896284 | 15° C | 97% | 1019.4 hPa | 0 mm | - | 43 W/m² | - |
| 1777895983 | 15° C | 97% | 1019.3 hPa | 0 mm | - | 43 W/m² | - |
| 1777895681 | 14.44° C | 97% | 1019 hPa | 0 mm | - | 44 W/m² | - |
| 1777895377 | 14.44° C | 98% | 1019.3 hPa | 0 mm | - | 42 W/m² | - |
| 1777895075 | 13.89° C | 98% | 1019.3 hPa | 0 mm | - | 34 W/m² | - |
| 1777894772 | 13.89° C | 98% | 1019.4 hPa | 0 mm | - | 33 W/m² | - |
| 1777894469 | 13.89° C | 98% | 1019.4 hPa | 0 mm | - | 33 W/m² | - |
| 1777894166 | 13.89° C | 98% | 1019.3 hPa | 0 mm | - | 27 W/m² | - |
| 1777893863 | 13.33° C | 98% | 1019.2 hPa | 0 mm | - | 25 W/m² | - |
| 1777893560 | 13.33° C | 98% | 1018.9 hPa | 0 mm | - | 23 W/m² | - |
| 1777893256 | 13.33° C | 98% | 1019.2 hPa | 0 mm | - | 20 W/m² | - |
| 1777892953 | 13.33° C | 98% | 1018.9 hPa | 0 mm | - | 17 W/m² | - |
| 1777892649 | 13.33° C | 98% | 1019 hPa | 0 mm | - | 14 W/m² | - |
| 1777892345 | 13.33° C | 98% | 1018.8 hPa | 0 mm | - | 10 W/m² | - |
| 1777892041 | 12.78° C | 98% | 1018.8 hPa | 0 mm | - | 7 W/m² | - |
* Rain latest hour (hover to see other rain measurements)
** Current wind speed in m/s (hover to see current wind gust speed)